STARLINK-32774 (62737 NORAD) Tracking and Keplerian Element Data

This shows tracking and keplerian element data for the satellite.

Feedback or suggestion? Click here.




ElementValue
Catalog62737
NameSTARLINK-32774
Epoch Orbit5104
Epoch Day354.07223144
Epoch Year2025
RAAN247.2578
Inclination42.9983
Eccentricity0.0001495
Argument of Perigee257.3868
Mean Anonmoly102.6817
Mean Motion15.27578254
Decay Rate0.00011744
L11 62737U 25014C 25354.07223144 .00011744 00000+0 43564-3 0 9990
L22 62737 42.9983 247.2578 0001495 257.3868 102.6817 15.27578254 51046



Live tracking and technical data element details for STARLINK-32774 (NORAD 62737). STARLINK-32774 can be tracked NOW for your location showing map with azimuth and elevation plus other details from your city location.







IsCatalogInMostPopularTable: catalog: 62737, numindb: 249
Update: records affected: 1



GetName: 62737 STARLINK-32774

Hit Count: updated at: Sun, 08 Feb 2026 16:46:09 GMT